030806 A46  1.3-  1.0-    030907 859  1.5-  1.7+    031024 A46  0.3-  0.2+  

030806 A32  0.8-  0.4-    030907 704  0.4+  1.6-    031024 A46  0.1+  0.3+  

030806 A32  0.3-  0.6+    030907 704 (2.9-  1.8-)   031024 A46  0.1-  0.2-  

030806 A32  0.1+  0.1+    030907 704 (2.6-  1.0-)   031024 A46  0.1-  0.4-  

030806 A46  0.4-  0.3-    030907 704 (6.0-  2.3-)   031025 A46  0.3-  0.1-  

030806 A46  0.7+  0.2+    030908 785 (6.8+  5.8+)   031025 D70  0.5-  1.6+  

030806 A46  1.7+  1.1-    030908 785  1.7+  0.6+    031025 D70 (3.2-  1.8-) 

030806 A46  1.6+  0.9-    030908 360  0.2+  0.7+    031025 A41  0.2-  0.1-  

030807 A46 (2.6-  0.3-)   030908 360  0.4+  0.8+    031025 A41  0.1+  1.0+  

030807 A46  0.3+  0.1+    030910 785  0.4+  0.8-    031025 A41  0.2+  0.9+  

030807 A46  0.6+  0.2+    030910 785  0.7-  0.3+    031029 H41  0.0   0.2+  

030807 A46  1.0+  0.2+    030911 620  0.6-  0.1-    031029 H41  0.3-  0.2+  

030807 A46  0.5+  0.7+    030911 620  0.7+  0.2+    031029 H41  0.2-  0.6+  

030807 A46  1.3+  0.1+    030912 213  1.4+  0.1+    031029 H41  1.3-  0.4-  

030807 213 (1.5-  2.1-)   030912 213 (3.2+  0.6-)   031029 342  0.7+  1.2-  

030807 213  0.8+  0.3+    030912 213  0.5-  0.2+    031029 342  0.1-  0.9+  

030807 213  0.9+  0.0     030913 349  0.1-  0.1+    031101 213  0.6+  0.7+  

030807 213  0.0   0.1+    030913 349  0.3+  0.1+    031101 213  1.1+  0.4-  

030807 939 (2.4+  0.4+)   030913 349  1.2+  0.3+    031101 213 (0.6-  2.5-) 

030807 939  0.4-  0.3+    030913 349  0.3-  0.3+    031101 900 (1.0+  2.0-) 

030807 939 (2.4-  0.3+)   030915 H41  0.6-  0.1+    031101 900  0.8+  0.4+  

030808 A46  0.2+  1.1+    030915 H41  1.2+  0.6-    031102 232  1.4-  0.3+  

030808 A46  0.4+  0.3-    030917 785  0.4+  1.7+    031102 232  0.2-  0.5+  

030808 A46  0.9+  0.5+    030917 785  1.2-  1.9-    031102 232  0.0   1.8+  

030808 A46  1.3+  0.5-    030918 H41  0.6+  0.3+    031102 H41  0.7-  0.2+  

030810 A32  1.5-  0.0     030918 H41  0.0   0.1-    031102 H41  0.1-  0.5-  

030810 A32  1.3-  0.2-    030918 704  0.2+  0.1+    031102 H41  0.2+  0.9-  

030810 A32  0.3+  0.5+    030918 704  0.4+  0.7-    031102 H41  0.1-  0.8+  

030810 A32  0.6-  0.3-    030918 704  0.9-  1.3-    031103 H41  0.1+  0.2+  

030810 A32  1.1-  0.1+    030918 704 (2.1-  1.1-)   031103 H41  1.4+  0.9+  

030810 J95  0.1+  0.3+    030918 704 (2.4-  1.1-)   031103 H41  0.1+  0.8-  

030810 J95  0.1+  0.6+    030918 215  0.6+  0.2-    031104 H41  1.1+  0.0   

030810 J95  0.9+  0.4+    030918 215  0.3+  0.4+    031104 H41  0.0   0.2+  

030810 170 (2.5+  0.5+)   030918 048  0.2-  0.5-    031104 H41  0.2-  0.7+  

030810 170  0.2-  1.7+    030918 048  1.4+  0.1+    031105 704  0.7+  0.3-  

030810 170  0.6+  1.0+    030919 048  1.1+  0.3-    031105 704 (0.3+  2.0-) 

030811 A46  0.4-  0.2-    030919 048  0.9+  0.0     031105 704  0.3+  1.0+  

030811 A46  1.4-  0.9-    030919 A46  0.7-  0.2-    031105 704  1.3+  0.4+  

030811 A46  0.2-  0.2-    030919 A46  0.2-  1.0-    031105 704 (2.0-  0.7+) 

030811 A46  1.3-  0.6-    030919 A46  0.0   0.2+    031106 A32  0.8-  1.0-  

030811 A46  0.5+  0.7+    030919 A46  0.0   0.3+    031106 A32  0.1-  0.9-  

030811 A46  0.7-  0.5-    030919 A46  0.3-  0.6-    031106 A32  0.1+  0.4-  

030811 A32  0.5-  0.0     030919 A46  0.4+  0.2-    031107 A32  0.2-  0.5-  

030811 A32  1.4-  0.5-    030919 048  0.3+  0.3+    031107 A32  0.2-  0.2-  

030811 A32  0.5-  0.4+    030919 048  0.6+  0.1-    031107 A32  0.5-  0.8-  

030813 620  0.3+  0.5+    030919 118  0.7+  0.9+    031117 900 (2.4-  0.3+) 

030813 620  0.3+  0.6+    030919 118  0.3+  0.3+    031117 900  0.4+  0.8+  

030813 620  0.5+  0.7+    030919 118  0.1-  0.2+    031117 360  0.1-  0.9+  

030818 785  1.3+  0.0     030919 A46  1.1+  0.1+    031117 360  0.0   1.1+  

030818 785  1.8-  1.2+    030919 A46  1.2+  0.0     031118 213  1.0-  0.5-  

030820 J95  0.7+  0.2+    030919 A46  0.3+  0.3+    031118 213  0.9-  0.7-  

030820 J95  1.4+  0.5+    030919 A46  0.9+  0.4-    031118 213  0.6+  0.5-  

030820 J95  0.7+  0.7+    030919 A46  0.6+  0.2+    031119 H41  1.4-  0.3+  

030820 213  0.1+  0.2-    030919 A46  1.5-  1.2-    031119 H41 (3.6-  0.9-) 

030820 213  1.1-  0.3+    030920 939  0.0   0.4+    031120 H41  0.1-  0.8+  

030820 213  0.1-  0.1-    030920 939  1.6+  0.1+    031120 H41  1.0-  0.4-  

030820 232  0.2-  0.2-    030920 939 (2.9+  0.6-)   031120 H41  0.2+  1.3-  

030820 859  1.8+  0.4-    030920 H41  0.1+  0.5+    031120 H41  1.1+  1.1-  

030820 859 (2.0+  0.7+)   030920 H41  0.4-  0.1-    031123 900  0.6+  0.1-  

030820 859 (3.5+  4.1+)   030920 213  0.4-  0.5-    031123 900 (2.5-  3.4-) 

030821 599  0.6+  0.4+    030920 048  1.4+  0.1+    031125 H41  1.5+  0.8-  

030821 599  1.3+  0.8+    030920 213  0.9-  0.1-    031125 H41  1.5+  0.2+  

030821 599  1.1+  0.4+    030920 048  0.7+  0.7+    031125 H41  1.4+  0.3+  

030821 785  0.9+  0.7+    030920 213  0.6+  0.4-    031128 H41  1.0-  0.4+  

030821 785 (2.3-  1.5-)   030920 048  0.3+  0.6+    031128 H41  1.1-  1.1+  

030821 785  1.3+  1.2+    030920 232  1.3-  1.0-    031128 H41  1.4-  0.6+  

030823 A46  1.5+  0.2+    030920 048  1.5+  0.2+    031129 176  1.3+  0.6+  

030823 A46  0.0   1.1-    030921 048  1.4+  0.3+    031129 176  1.1+  0.6+  

030823 A46  1.1+  0.9-    030921 232  1.0+  0.6+    031129 176  0.8+  0.7+  

030823 A46  1.8+  0.7+    030921 232  0.2+  0.3-    031129 176  0.4+  0.8+  

030823 A46  1.0+  0.2+    030921 A18  0.3-  0.8-    031213 620  0.5-  1.0+  

030823 A46  0.6-  0.1-    030921 212  0.4+  0.5+    031215 620 (0.1+  2.4+) 

030823 704  0.1-  1.7+    030921 212  0.5+  0.2+    031215 620  0.1+  1.5+  

030823 704  1.0-  0.0     030921 212  0.5+  0.3+                            



NAKANO

         **** Don't distribute anyone except personal use only ****

                (C) Copyright 2004 OAA/ComputingSection

write mail from CFAD0::NAKANO on 2004-11-03 02:43:59(JST).

 



   P/2003 O2 (LINEAR)                                                    

Epoch 2003 Aug. 29.0 TT = JDT 2452880.5  

T 2003 Sept. 5.80936 TT                                 Nakano

q   1.5054464            (2000.0)            P               Q

n   0.11236418     Peri.   32.72094     +0.94941357     -0.30682539

a   4.2532161      Node   344.71099     +0.20468233     +0.76613182

e   0.6460452      Incl.   14.69112     +0.23815754     +0.56471250

P   8.77 (+/- 0.03 day)

From 489 observations 2003 July 29-Nov. 29, mean residual 0".74.

NAKANO

         **** Don't distribute anyone except personal use only ****

                (C) Copyright 2003 OAA/ComputingSection

write mail from CFAD0::NAKANO on 2003-12-14 18:52:00(JST).

 





    P/2003 O2 (LINEAR)                                                    

Epoch 2003 Aug. 29.0 TT = JDT 2452880.5  

T 2003 Sept. 5.80937 TT                                 Nakano

q   1.5054338            (2000.0)            P               Q

n   0.11238201     Peri.   32.72113     +0.94941564     -0.30681866

a   4.2527662      Node   344.71040     +0.20467717     +0.76613616

e   0.6460107      Incl.   14.69089     +0.23815374     +0.56471027

P   8.77 (+/- 0.04 day)

From 475 observations 2003 July 29-Nov. 19, mean residual 0".73.



NAKANO

         **** Don't distribute anyone except personal use only ****

                (C) Copyright 2003 OAA/ComputingSection

write mail from CFAD0::NAKANO on 2003-11-20 02:00:59(JST).

 



    P/2003 O2 (LINEAR)                                                    

Epoch 2003 Aug. 29.0 TT = JDT 2452880.5  

T 2003 Sept. 5.80899 TT                                 Nakano

q   1.5054035            (2000.0)            P               Q

n   0.11242359     Peri.   32.72121     +0.94942214     -0.30679780

a   4.2517177      Node   344.70906     +0.20466082     +0.76614706

e   0.6459305      Incl.   14.69038     +0.23814186     +0.56470682

P   8.77 (+/- 0.13 day)

From 399 observations 2003 July 29-Oct. 18, mean residual 0".73.



NAKANO

         **** Don't distribute anyone except personal use only ****

                (C) Copyright 2003 OAA/ComputingSection

write mail from CFAD0::NAKANO on 2003-10-19 02:58:01(JST).

 



   P/2003 O2 (LINEAR)                                                    

T 2003 Sept. 5.80960 TT                                 Nakano

q   1.5052594            (2000.0)            P               Q

n   0.11264028     Peri.   32.72259     +0.94944473     -0.30672454

a   4.2462632      Node   344.70326     +0.20460322     +0.76618970

e   0.6455096      Incl.   14.68825     +0.23810128     +0.56468876

P   8.75 (+/- 0.81 day)

From 242 observations 2003 July 29-Sept. 8.

                         

NAKANO

         **** Don't distribute anyone except personal use only ****

                (C) Copyright 2003 OAA/ComputingSection

write mail from CFAD0::NAKANO on 2003-09-14 04:53:52(JST).



◎P/2003 O2の軌道と予報位置です



 久万の中村彰正氏の9月2日では,CCD全光度が16.3等,ASOのシェロ−ドの

5日の観測では16.4等でした.



    P/2003 O2 (LINEAR)                                                    

T 2003 Sept. 5.80558 TT                                 Nakano

q   1.5050793            (2000.0)            P               Q

n   0.11291031     Peri.   32.72132     +0.94949119     -0.30657628

a   4.2394903      Node   344.69557     +0.20448564     +0.76625732

e   0.6449858      Incl.   14.68541     +0.23801701     +0.56467753

P   8.73 (+/- 1.33 day)

From 217 observations 2003 July 29-Sept. 5.

Date/        TT  R.A.(2000) Decl.     Delta   r     Daily motion  Mag.  Moon Age

              h    h  m       。  ,                      ,  / PA 。  m1      。

2003 Sept. 5 18  03 25.03  +32 35.3   0.885  1.505    39.3 /  46  15.9  135  .74

           6 18  03 27.27  +33 02.7   0.881  1.505    39.0 /  45  15.9  123  .83

           7 18  03 29.49  +33 30.0   0.877  1.505    38.7 /  45  15.9  110  .90

           8 18  03 31.69  +33 57.1   0.873  1.505    38.3 /  45  15.9   98  .96

